Weather History for Vacaville, CA

Change the Weather History Date:

Tuesday, October 22, 2013

  Actual Average Record
Temperature  
Mean Temperature 64 °F -  
Max Temperature 84 °F 77 °F 93 °F (1959)
Min Temperature 44 °F 46 °F 33 °F (1949)
Degree Days  
Heating Degree Days 1    
Growing Degree Days 14 (Base 50)    
Moisture  
Dew Point 41 °F    
Average Humidity 52    
Maximum Humidity 86    
Minimum Humidity 20    
Precipitation  
Precipitation 0.00 in - - ()
Sea Level Pressure  
Sea Level Pressure 29.96 in    
Wind  
Wind Speed 1 mph (North)    
Max Wind Speed 6 mph    
Max Gust Speed -    
Visibility 10 miles    
Events      
Averages and records for this station are not official NWS values.
T = Trace of Precipitation, MM = Missing Value Source: NWS Daily Summary

Daily Weather History Graph

Daily Weather History Graph

Search for Another Location

Airport:

Trip Planner

Search our weather history database for the weather conditions in past years. The results will help you decide how hot, cold, wet, or windy it might be!

Date:

Astronomy

Oct. 22, 2013 Rise Set
Actual Time 7:24 AM PDT 6:19 PM PDT
Civil Twilight 6:57 AM PDT 6:46 PM PDT
Nautical Twilight 6:26 AM PDT 7:17 PM PDT
Astronomical Twilight 5:55 AM PDT 7:48 PM PDT
Moon 9:06 PM PDT (10/22) 10:54 AM PDT (10/22)
Length of Visible Light 11h 49m
Length of Day
10h 55m
Waning Gibbous, 86% of the Moon is Illuminated
Oct 22
Waning Gibbous
Oct 26
Last Quarter
Nov 3
New
Nov 9
First Quarter
Nov 17
Full

Hourly Weather History & Observations

Time (PDT) Temp. Windchill Dew Point Humidity Pressure Visibility Wind Dir Wind Speed Gust Speed Precip Events Conditions
12:53 AM 50.0 °F - 42.1 °F 74% 29.96 in 10.0 mi Calm Calm - N/A   Clear
1:53 AM 50.0 °F - 43.0 °F 77% 29.96 in 10.0 mi Calm Calm - N/A   Clear
2:53 AM 48.0 °F - 41.0 °F 77% 29.98 in 10.0 mi Calm Calm - N/A   Clear
3:53 AM 46.0 °F - 42.1 °F 86% 29.97 in 10.0 mi Calm Calm - N/A   Clear
4:53 AM 46.0 °F - 41.0 °F 83% 29.98 in 10.0 mi Calm Calm - N/A   Clear
5:53 AM 46.0 °F - 39.9 °F 79% 29.99 in 10.0 mi Calm Calm - N/A   Clear
6:53 AM 44.1 °F - 39.9 °F 85% 30.00 in 10.0 mi Calm Calm - N/A   Clear
7:53 AM 46.0 °F 44.8 °F 41.0 °F 83% 30.02 in 10.0 mi WSW 3.5 mph - N/A   Clear
8:53 AM 57.0 °F - 45.0 °F 64% 30.02 in 10.0 mi Calm Calm - N/A   Clear
9:53 AM 64.9 °F - 44.1 °F 47% 30.03 in 10.0 mi NNE 3.5 mph - N/A   Clear
10:53 AM 71.1 °F - 41.0 °F 34% 30.02 in 10.0 mi NNE 4.6 mph - N/A   Clear
11:53 AM 77.0 °F - 41.0 °F 28% 30.00 in 10.0 mi North 5.8 mph - N/A   Clear
12:53 PM 79.0 °F - 42.1 °F 27% 29.98 in 10.0 mi Calm Calm - N/A   Clear
1:53 PM 81.0 °F - 41.0 °F 24% 29.96 in 10.0 mi Variable 4.6 mph - N/A   Clear
2:53 PM 82.9 °F - 39.9 °F 22% 29.94 in 10.0 mi Variable 3.5 mph - N/A   Clear
3:53 PM 84.0 °F - 39.0 °F 20% 29.93 in 10.0 mi ENE 3.5 mph - N/A   Clear
4:53 PM 84.0 °F - 39.0 °F 20% 29.91 in 10.0 mi NE 3.5 mph - N/A   Clear
5:53 PM 79.0 °F - 39.9 °F 25% 29.91 in 10.0 mi Calm Calm - N/A   Clear
6:53 PM 71.1 °F - 45.0 °F 39% 29.90 in 10.0 mi WSW 4.6 mph - N/A   Clear
7:53 PM 70.0 °F - 41.0 °F 35% 29.91 in 10.0 mi SW 4.6 mph - N/A   Clear
8:53 PM 57.9 °F - 39.9 °F 51% 29.91 in 10.0 mi Calm Calm - N/A   Clear
9:53 PM 57.0 °F - 39.9 °F 53% 29.93 in 10.0 mi Calm Calm - N/A   Clear
10:53 PM 54.0 °F - 41.0 °F 62% 29.93 in 10.0 mi Calm Calm - N/A   Clear
11:53 PM 53.1 °F - 39.9 °F 61% 29.93 in 10.0 mi Calm Calm - N/A   Clear